PSLV R/B

Satellite information

Favourite Embed

Satellite Type and Status

ROCKET BODYIN ORBIT

Key statistics

Satellite PSLV R/B at a glance.

Uptime

10859

Days in orbit

Revolutions

≈ 14.2

Per day

Orbit

SSO

Sun Synchronous Orbit

Inclination

99.1

Latest

Satellite identification and parameters

Extended collection of information and parameters for PSLV R/B.

Object identification

Identified? True

Debris? False

Object name: PSLV R/B

International designator: 1996-017B

Object number (NORAD): 23828

Object ID (CCSDS): 23828

Country: INDIA (IND)

Current information (Y/N): Y

RCS size: LARGE

Orbital parameters

Period: 101.221 minutes

Inclination: 99.0529 deg

SMA: 7194.589 km

Apoapsis: 840.714 km

Periapsis: 792.195 km

RAAN: 353.087 deg

Eccentricy: 0.00337188

Argument of periapsis: 167.9376 deg

Mean anomaly: 192.2616 deg

Mean motion: 14.22635885 rev/day

Mean motion (dot): 0.00000143 rev/day2

B* drag term: 0.000084294636 1/REarth

Two-line elements (TLE)

Creation date: Dec. 12, 2025, 10:14 a.m.

Reference frame: TEME

Reference center: EARTH

Epoch: Dec. 12, 2025, 6:02 a.m. UTC

TLE line 0: 0 PSLV R/B

TLE line 1: 1 23828U 96017B 25346.25144964 .00000143 00000-0 84295-4 0 9991

TLE line 2: 2 23828 99.0529 353.0870 0033719 167.9376 192.2616 14.22635885542504

Live tracking on map

Real-time ground track for satellite PSLV R/B.

In-orbit conjunctions

A list of the most updated potential collisions computed for object PSLV R/B.

Target Orbit TCA Probability of collision Miss distance Type
CZ-6A DEB LEO 2025-03-04 18:33:34 0.001445856 77.0 (m) DEBRIS
CZ-6A DEB LEO 2025-02-27 09:25:00 0.0001276977 535.0 (m) DEBRIS
SL-18 DEB LEO 2025-01-06 16:34:06 0.0001397031 546.0 (m) DEBRIS
METEOR 2-8 DEB LEO 2024-08-15 13:22:01 0.0005628695 113.0 (m) DEBRIS

Associated space launch

IRS-P3 (Indian Remote Sensing Satellite) was an Indian experimental earth observation satellite.

PSLV R/B was lifted into orbit during the mission ‘PSLV | IRS-P3’, on board a PSLV space rocket.

The launch took place on March 21, 1996, 4:53 a.m. from Satish Dhawan Space Centre First Launch Pad.

For more information about the launch, click the button.

Launch to space PSLV | IRS-P3
PSLV | IRS-P3

Agency: N/A

Status: Launch Successful

Launch date: March 21, 1996, 4:53 a.m. UTC

Rocket: PSLV

Launch pad: Satish Dhawan Space Centre First Launch Pad

Location: Satish Dhawan Space Centre, India

...

Latest news about this satellite

There are no fresh news available about this satellite. Check back as we update our databases every day.


Newsletter sign-up

Weekly statistics, charts and insights to help you stay on top of the space industry.